This is the latest recevied weather packets stored in our database for station/object WV8BRW. If no packets are shown the sender has not sent any weather packets the latest 10 day(s).
| Time | Temp. | Humidity | Pressure | Rain* | Wind** | Luminosity | Snow |
|---|---|---|---|---|---|---|---|
| 1778096807 | 14.44° C | 94% | 1010.1 hPa | 0 mm | - | 141 W/m² | - |
| 1778096503 | 14.44° C | 92% | 1010.3 hPa | 0 mm | - | 88 W/m² | - |
| 1778096201 | 14.44° C | 91% | 1010.1 hPa | 0 mm | - | 93 W/m² | - |
| 1778095898 | 14.44° C | 91% | 1010.1 hPa | 0 mm | - | 106 W/m² | - |
| 1778095595 | 14.44° C | 91% | 1010.3 hPa | 0 mm | - | 127 W/m² | - |
| 1778095291 | 14.44° C | 92% | 1010.1 hPa | 0 mm | - | 167 W/m² | - |
| 1778094988 | 14.44° C | 93% | 1010 hPa | 0 mm | - | 249 W/m² | - |
| 1778094684 | 13.89° C | 93% | 1010.1 hPa | 0 mm | - | 242 W/m² | - |
| 1778094381 | 13.89° C | 93% | 1010.4 hPa | 0 mm | - | 105 W/m² | - |
| 1778094078 | 13.89° C | 93% | 1010.3 hPa | 0 mm | - | 136 W/m² | - |
| 1778093775 | 13.89° C | 95% | 1010.4 hPa | 0 mm | - | 134 W/m² | - |
| 1778093471 | 13.89° C | 96% | 1010.5 hPa | 0 mm | - | 245 W/m² | - |
| 1778093169 | 13.89° C | 96% | 1010.4 hPa | 0 mm | - | 271 W/m² | - |
| 1778092866 | 13.33° C | 97% | 1010.1 hPa | 0 mm | - | 328 W/m² | - |
| 1778092563 | 12.78° C | 97% | 1010.1 hPa | 0 mm | - | 152 W/m² | - |
| 1778092258 | 13.33° C | 97% | 1010.3 hPa | 0 mm | - | 94 W/m² | - |
| 1778091956 | 13.33° C | 98% | 1010.2 hPa | 0 mm | - | 152 W/m² | - |
| 1778091653 | 12.78° C | 98% | 1010.2 hPa | 0 mm | - | 266 W/m² | - |
| 1778091351 | 12.78° C | 98% | 1010.3 hPa | 0 mm | - | 201 W/m² | - |
| 1778091047 | 12.78° C | 98% | 1010.4 hPa | 0 mm | - | 63 W/m² | - |
| 1778090744 | 12.78° C | 99% | 1010.3 hPa | 0 mm | - | 72 W/m² | - |
| 1778090441 | 12.78° C | 99% | 1010.1 hPa | 0 mm | - | 94 W/m² | - |
| 1778090137 | 12.78° C | 99% | 1010.2 hPa | 0 mm | - | 102 W/m² | - |
| 1778089834 | 12.78° C | 99% | 1010 hPa | 0 mm | - | 124 W/m² | - |
| 1778089533 | 12.22° C | 99% | 1010.1 hPa | 0 mm | - | 206 W/m² | - |
* Rain latest hour (hover to see other rain measurements)
** Current wind speed in m/s (hover to see current wind gust speed)